SAA362 FACT-FAOR

Flight info

Callsign SAA362
Flight time 1h 44m
Altitude 39000
Route TETAN1A TETAN UZ2 NIBEX NIBEX1D
Aircraft A346/H-SDE2E3FGHIJ3J4J5M1RWXY/LB1D1

Departure

Time 2026-05-06 16:48
Airport Cape Town International Airport (FACT)

Arrival

Time 2026-05-06 18:33
Airport O.R. Tambo International Airport (FAOR)
Time Latitude Longitude Altitude Speed Heading
2026-05-06 16:06 -33.96947 18.59838 163 ft 0 kts 255°
2026-05-06 16:39 -33.96947 18.59839 162 ft 1 kts 255°
2026-05-06 16:40 -33.96941 18.59864 163 ft 2 kts 255°
2026-05-06 16:40 -33.96938 18.59888 163 ft 4 kts 277°
2026-05-06 16:40 -33.96944 18.59908 163 ft 4 kts 314°
2026-05-06 16:40 -33.96961 18.59920 163 ft 3 kts 345°
2026-05-06 16:41 -33.96987 18.59928 163 ft 4 kts 345°
2026-05-06 16:41 -33.96994 18.59931 163 ft 0 kts 345°
2026-05-06 16:44 -33.96980 18.59926 163 ft 6 kts 345°
2026-05-06 16:45 -33.96929 18.59909 163 ft 9 kts 345°
2026-05-06 16:45 -33.96854 18.59885 163 ft 13 kts 345°
2026-05-06 16:45 -33.96760 18.59854 163 ft 15 kts 345°
2026-05-06 16:45 -33.96641 18.59815 163 ft 20 kts 346°
2026-05-06 16:46 -33.96498 18.59778 162 ft 22 kts 349°
2026-05-06 16:46 -33.96336 18.59742 163 ft 24 kts 349°
2026-05-06 16:46 -33.96235 18.59730 162 ft 13 kts 25°
2026-05-06 16:46 -33.96159 18.59810 161 ft 17 kts 45°
2026-05-06 16:47 -33.96072 18.59917 162 ft 19 kts 46°
2026-05-06 16:47 -33.96034 18.60015 162 ft 7 kts 146°
2026-05-06 16:47 -33.96094 18.60040 162 ft 13 kts 163°
2026-05-06 16:47 -33.96363 18.60125 162 ft 73 kts 165°
2026-05-06 16:48 -33.97063 18.60347 164 ft 133 kts 165°
2026-05-06 16:48 -33.98126 18.60680 199 ft 178 kts 166°
2026-05-06 16:48 -33.99373 18.61055 726 ft 187 kts 166°
2026-05-06 16:48 -34.00634 18.61434 1460 ft 187 kts 166°
2026-05-06 16:49 -34.01901 18.61816 2232 ft 188 kts 166°
2026-05-06 16:49 -34.03138 18.62358 2839 ft 195 kts 141°
2026-05-06 16:49 -34.03792 18.63798 3340 ft 207 kts 97°
2026-05-06 16:49 -34.03465 18.65510 3907 ft 219 kts 62°
2026-05-06 16:50 -34.02579 18.67087 4397 ft 233 kts 59°
2026-05-06 16:50 -34.01627 18.68780 4748 ft 256 kts 60°
2026-05-06 16:50 -34.00610 18.70659 5167 ft 276 kts 61°
2026-05-06 16:50 -33.99953 18.71946 5789 ft 273 kts 63°
2026-05-06 16:51 -33.98699 18.74577 7039 ft 275 kts 64°
2026-05-06 16:51 -33.97731 18.76630 7864 ft 281 kts 65°
2026-05-06 16:51 -33.96767 18.78668 8665 ft 286 kts 65°
2026-05-06 16:51 -33.95769 18.80765 9498 ft 291 kts 65°
2026-05-06 16:52 -33.94754 18.82897 10345 ft 296 kts 65°
2026-05-06 16:52 -33.93706 18.85094 10981 ft 310 kts 65°
2026-05-06 16:52 -33.92599 18.87414 11484 ft 328 kts 64°
2026-05-06 16:52 -33.91424 18.89865 11929 ft 347 kts 64°
2026-05-06 16:53 -33.90184 18.92447 12350 ft 365 kts 64°
2026-05-06 16:53 -33.88879 18.95155 12815 ft 381 kts 64°
2026-05-06 16:53 -33.87531 18.97941 13588 ft 387 kts 64°
2026-05-06 16:53 -33.86173 19.00744 14443 ft 390 kts 64°
2026-05-06 16:54 -33.84798 19.03584 15261 ft 394 kts 64°
2026-05-06 16:54 -33.83409 19.06454 16017 ft 399 kts 64°
2026-05-06 16:54 -33.82000 19.09364 16771 ft 403 kts 64°
2026-05-06 16:54 -33.80580 19.12294 17494 ft 407 kts 64°
2026-05-06 16:55 -33.79147 19.15260 18236 ft 412 kts 64°
2026-05-06 16:55 -33.77695 19.18254 18904 ft 417 kts 64°
2026-05-06 16:55 -33.76226 19.21285 19572 ft 422 kts 64°
2026-05-06 16:55 -33.74738 19.24355 20254 ft 427 kts 64°
2026-05-06 16:56 -33.73233 19.27454 20902 ft 432 kts 64°
2026-05-06 16:56 -33.71708 19.30592 21621 ft 436 kts 64°
2026-05-06 16:56 -33.70188 19.33712 22198 ft 441 kts 63°
2026-05-06 16:56 -33.68626 19.36915 22800 ft 446 kts 63°
2026-05-06 16:57 -33.67010 19.40122 23400 ft 451 kts 60°
2026-05-06 16:57 -33.65231 19.43258 23973 ft 457 kts 57°
2026-05-06 16:57 -33.63293 19.46305 24544 ft 461 kts 54°
2026-05-06 16:57 -33.61297 19.49349 25154 ft 464 kts 54°
2026-05-06 16:58 -33.59293 19.52389 25769 ft 465 kts 54°
2026-05-06 16:58 -33.57280 19.55446 26385 ft 466 kts 54°
2026-05-06 16:58 -33.55273 19.58497 27001 ft 467 kts 54°
2026-05-06 16:58 -33.53258 19.61567 27635 ft 467 kts 55°
2026-05-06 16:59 -33.51243 19.64632 28242 ft 468 kts 55°
2026-05-06 16:59 -33.49226 19.67701 28802 ft 469 kts 55°
2026-05-06 16:59 -33.47196 19.70786 29357 ft 470 kts 55°
2026-05-06 16:59 -33.45173 19.73859 29935 ft 470 kts 55°
2026-05-06 17:00 -33.43151 19.76926 30637 ft 466 kts 55°
2026-05-06 17:00 -33.41146 19.79963 31413 ft 461 kts 55°
2026-05-06 17:00 -33.39169 19.82959 32159 ft 456 kts 56°
2026-05-06 17:00 -33.37211 19.85924 32849 ft 452 kts 56°
2026-05-06 17:01 -33.35924 19.87873 33291 ft 449 kts 56°
2026-05-06 17:01 -33.33994 19.90795 33980 ft 445 kts 56°
2026-05-06 17:01 -33.32079 19.93689 34592 ft 442 kts 56°
2026-05-06 17:01 -33.30172 19.96567 35024 ft 443 kts 55°
2026-05-06 17:02 -33.28157 19.99389 35295 ft 449 kts 52°
2026-05-06 17:02 -33.26069 20.02176 35501 ft 453 kts 52°
2026-05-06 17:02 -33.23946 20.04993 35754 ft 457 kts 52°
2026-05-06 17:02 -33.21815 20.07825 36010 ft 460 kts 52°
2026-05-06 17:03 -33.19664 20.10685 36271 ft 463 kts 52°
2026-05-06 17:03 -33.17506 20.13551 36518 ft 466 kts 51°
2026-05-06 17:03 -33.15329 20.16441 36769 ft 469 kts 51°
2026-05-06 17:03 -33.13140 20.19343 37033 ft 471 kts 51°
2026-05-06 17:04 -33.10944 20.22251 37348 ft 471 kts 51°
2026-05-06 17:04 -33.08774 20.25123 37634 ft 472 kts 50°
2026-05-06 17:04 -33.06569 20.28041 37833 ft 474 kts 50°
2026-05-06 17:04 -33.04345 20.30980 37951 ft 478 kts 50°
2026-05-06 17:05 -33.02105 20.33936 38117 ft 482 kts 50°
2026-05-06 17:05 -32.99841 20.36922 38274 ft 484 kts 50°
2026-05-06 17:05 -32.97572 20.39913 38445 ft 487 kts 49°
2026-05-06 17:05 -32.95290 20.42917 38595 ft 490 kts 49°
2026-05-06 17:06 -32.93000 20.45932 38746 ft 492 kts 49°
2026-05-06 17:06 -32.90692 20.48966 38892 ft 495 kts 49°
2026-05-06 17:06 -32.88369 20.52017 39006 ft 497 kts 49°
2026-05-06 17:07 -32.83695 20.58147 39075 ft 501 kts 49°
2026-05-06 17:07 -32.79006 20.64285 39076 ft 501 kts 49°
2026-05-06 17:08 -32.74291 20.70450 39069 ft 501 kts 49°
2026-05-06 17:08 -32.69625 20.76543 39069 ft 502 kts 49°
2026-05-06 17:09 -32.64917 20.82677 39072 ft 502 kts 49°
2026-05-06 17:09 -32.60208 20.88805 39069 ft 502 kts 49°
2026-05-06 17:10 -32.55500 20.94920 39071 ft 502 kts 49°
2026-05-06 17:10 -32.50792 21.01027 39071 ft 502 kts 48°
2026-05-06 17:11 -32.46071 21.07138 39069 ft 502 kts 48°
2026-05-06 17:11 -32.41346 21.13245 39068 ft 502 kts 48°
2026-05-06 17:12 -32.36627 21.19334 39070 ft 501 kts 48°
2026-05-06 17:12 -32.31905 21.25417 39069 ft 501 kts 48°
2026-05-06 17:13 -32.27181 21.31493 39059 ft 501 kts 48°
2026-05-06 17:13 -32.22487 21.37520 39052 ft 502 kts 48°
2026-05-06 17:14 -32.17748 21.43595 39051 ft 502 kts 48°
2026-05-06 17:14 -32.13018 21.49648 39051 ft 502 kts 48°
2026-05-06 17:15 -32.08272 21.55711 39051 ft 502 kts 48°
2026-05-06 17:15 -32.03532 21.61758 39043 ft 502 kts 48°
2026-05-06 17:16 -31.98776 21.67813 39042 ft 502 kts 48°
2026-05-06 17:16 -31.94016 21.73867 39042 ft 503 kts 48°
2026-05-06 17:17 -31.89250 21.79915 39041 ft 503 kts 48°
2026-05-06 17:17 -31.84523 21.85905 39042 ft 502 kts 48°
2026-05-06 17:18 -31.79759 21.91932 39041 ft 502 kts 48°
2026-05-06 17:18 -31.74993 21.97952 39040 ft 503 kts 48°
2026-05-06 17:19 -31.70228 22.03963 39043 ft 503 kts 47°
2026-05-06 17:19 -31.65445 22.09985 39042 ft 503 kts 47°
2026-05-06 17:20 -31.60663 22.15996 39042 ft 503 kts 47°
2026-05-06 17:20 -31.55881 22.21998 39042 ft 503 kts 47°
2026-05-06 17:21 -31.51090 22.28002 39041 ft 504 kts 47°
2026-05-06 17:21 -31.46286 22.34011 39041 ft 505 kts 47°
2026-05-06 17:22 -31.41467 22.40029 39040 ft 506 kts 47°
2026-05-06 17:22 -31.36649 22.46037 38988 ft 506 kts 46°
2026-05-06 17:23 -31.31854 22.52007 38973 ft 507 kts 46°
2026-05-06 17:23 -31.27017 22.58019 38968 ft 507 kts 46°
2026-05-06 17:24 -31.22172 22.64033 38967 ft 508 kts 46°
2026-05-06 17:24 -31.17313 22.70054 38968 ft 509 kts 46°
2026-05-06 17:25 -31.12453 22.76068 38968 ft 509 kts 46°
2026-05-06 17:25 -31.07589 22.82078 38968 ft 510 kts 45°
2026-05-06 17:26 -31.02710 22.88091 38968 ft 510 kts 45°
2026-05-06 17:26 -30.97814 22.94090 38966 ft 510 kts 45°
2026-05-06 17:27 -30.92926 23.00070 38968 ft 510 kts 45°
2026-05-06 17:27 -30.88011 23.06078 38968 ft 510 kts 45°
2026-05-06 17:28 -30.83109 23.12062 38966 ft 511 kts 45°
2026-05-06 17:28 -30.78190 23.18058 38973 ft 511 kts 44°
2026-05-06 17:29 -30.73307 23.24002 38978 ft 511 kts 44°
2026-05-06 17:29 -30.68384 23.29984 38977 ft 511 kts 44°
2026-05-06 17:30 -30.63458 23.35959 38979 ft 512 kts 44°
2026-05-06 17:30 -30.58531 23.41928 38977 ft 512 kts 44°
2026-05-06 17:31 -30.53592 23.47903 38976 ft 512 kts 43°
2026-05-06 17:31 -30.48654 23.53864 38979 ft 512 kts 43°
2026-05-06 17:32 -30.43713 23.59821 38978 ft 512 kts 43°
2026-05-06 17:32 -30.38759 23.65784 38979 ft 513 kts 43°
2026-05-06 17:33 -30.33802 23.71742 38977 ft 513 kts 43°
2026-05-06 17:33 -30.28810 23.77732 38977 ft 513 kts 42°
2026-05-06 17:34 -30.23846 23.83678 38977 ft 513 kts 42°
2026-05-06 17:34 -30.18881 23.89617 38976 ft 513 kts 42°
2026-05-06 17:35 -30.13910 23.95555 38979 ft 513 kts 42°
2026-05-06 17:35 -30.08979 24.01434 38986 ft 513 kts 42°
2026-05-06 17:36 -30.01511 24.10320 38986 ft 513 kts 42°
2026-05-06 17:36 -29.96529 24.16239 38988 ft 513 kts 42°
2026-05-06 17:37 -29.91547 24.22148 38987 ft 513 kts 42°
2026-05-06 17:37 -29.86564 24.28053 38978 ft 514 kts 41°
2026-05-06 17:38 -29.81578 24.33948 38981 ft 513 kts 41°
2026-05-06 17:38 -29.76583 24.39845 38986 ft 514 kts 41°
2026-05-06 17:39 -29.71589 24.45733 38987 ft 513 kts 41°
2026-05-06 17:39 -29.66590 24.51619 38987 ft 514 kts 41°
2026-05-06 17:40 -29.61588 24.57498 38988 ft 514 kts 41°
2026-05-06 17:40 -29.56586 24.63369 38984 ft 514 kts 41°
2026-05-06 17:41 -29.51579 24.69235 38991 ft 514 kts 41°
2026-05-06 17:41 -29.46566 24.75098 39016 ft 514 kts 40°
2026-05-06 17:42 -29.41553 24.80949 39005 ft 514 kts 40°
2026-05-06 17:42 -29.36531 24.86808 38988 ft 514 kts 40°
2026-05-06 17:43 -29.31506 24.92663 38984 ft 514 kts 40°
2026-05-06 17:43 -29.26488 24.98506 38988 ft 514 kts 40°
2026-05-06 17:44 -29.21472 25.04335 38993 ft 514 kts 40°
2026-05-06 17:44 -29.16441 25.10169 38982 ft 514 kts 40°
2026-05-06 17:45 -29.11412 25.15995 38982 ft 514 kts 40°
2026-05-06 17:45 -29.06380 25.21812 38984 ft 514 kts 40°
2026-05-06 17:46 -29.01347 25.27622 38983 ft 514 kts 40°
2026-05-06 17:46 -28.96293 25.33449 38989 ft 514 kts 40°
2026-05-06 17:47 -28.91245 25.39259 38993 ft 514 kts 39°
2026-05-06 17:47 -28.86234 25.45022 38984 ft 515 kts 39°
2026-05-06 17:48 -28.81183 25.50821 38983 ft 515 kts 39°
2026-05-06 17:48 -28.76128 25.56615 38983 ft 515 kts 39°
2026-05-06 17:49 -28.71915 25.61439 38985 ft 515 kts 39°
2026-05-06 17:49 -28.66850 25.67229 38989 ft 516 kts 39°
2026-05-06 17:50 -28.61780 25.73015 38984 ft 516 kts 39°
2026-05-06 17:50 -28.56707 25.78800 38985 ft 516 kts 39°
2026-05-06 17:51 -28.51623 25.84587 38986 ft 516 kts 39°
2026-05-06 17:51 -28.46543 25.90362 38985 ft 516 kts 39°
2026-05-06 17:52 -28.41457 25.96137 38989 ft 516 kts 39°
2026-05-06 17:52 -28.36372 26.01901 38982 ft 516 kts 39°
2026-05-06 17:53 -28.31291 26.07646 38985 ft 515 kts 39°
2026-05-06 17:53 -28.26243 26.13342 38989 ft 515 kts 39°
2026-05-06 17:54 -28.21159 26.19074 38998 ft 515 kts 39°
2026-05-06 17:54 -28.16071 26.24806 38995 ft 515 kts 39°
2026-05-06 17:55 -28.10982 26.30532 38991 ft 514 kts 39°
2026-05-06 17:55 -28.05873 26.36205 39009 ft 514 kts 38°
2026-05-06 17:56 -28.00706 26.41792 39015 ft 513 kts 37°
2026-05-06 17:56 -27.95541 26.47383 39021 ft 512 kts 37°
2026-05-06 17:57 -27.90396 26.52967 39003 ft 511 kts 37°
2026-05-06 17:57 -27.87792 26.55794 38645 ft 509 kts 37°
2026-05-06 17:57 -27.85225 26.58578 37750 ft 515 kts 37°
2026-05-06 17:58 -27.82617 26.61406 36876 ft 520 kts 36°
2026-05-06 17:58 -27.80009 26.64238 36236 ft 519 kts 36°
2026-05-06 17:58 -27.77409 26.67060 35662 ft 516 kts 35°
2026-05-06 17:58 -27.74818 26.69865 34979 ft 516 kts 35°
2026-05-06 17:59 -27.72220 26.72672 34185 ft 518 kts 34°
2026-05-06 17:59 -27.69614 26.75488 33478 ft 519 kts 34°
2026-05-06 17:59 -27.67004 26.78298 32839 ft 517 kts 34°
2026-05-06 17:59 -27.64406 26.81092 32200 ft 515 kts 34°
2026-05-06 18:00 -27.61819 26.83876 31631 ft 512 kts 34°
2026-05-06 18:00 -27.59249 26.86643 31033 ft 509 kts 34°
2026-05-06 18:00 -27.56678 26.89411 30417 ft 507 kts 34°
2026-05-06 18:00 -27.54131 26.92152 29794 ft 504 kts 34°
2026-05-06 18:01 -27.51605 26.94871 29219 ft 500 kts 34°
2026-05-06 18:01 -27.49090 26.97576 28758 ft 494 kts 34°
2026-05-06 18:01 -27.46622 27.00232 28311 ft 488 kts 34°
2026-05-06 18:01 -27.44175 27.02860 27822 ft 483 kts 34°
2026-05-06 18:02 -27.41781 27.05427 27324 ft 479 kts 34°
2026-05-06 18:02 -27.39375 27.08005 26836 ft 475 kts 34°
2026-05-06 18:02 -27.36987 27.10562 26376 ft 471 kts 34°
2026-05-06 18:02 -27.34623 27.13093 25944 ft 466 kts 34°
2026-05-06 18:03 -27.32285 27.15596 25508 ft 461 kts 34°
2026-05-06 18:03 -27.29969 27.18069 25058 ft 457 kts 34°
2026-05-06 18:03 -27.27673 27.20523 24626 ft 453 kts 34°
2026-05-06 18:03 -27.25402 27.22947 24198 ft 449 kts 34°
2026-05-06 18:04 -27.23145 27.25353 23778 ft 445 kts 34°
2026-05-06 18:04 -27.20903 27.27742 23351 ft 441 kts 34°
2026-05-06 18:04 -27.18682 27.30109 22893 ft 439 kts 34°
2026-05-06 18:04 -27.16471 27.32461 22474 ft 435 kts 34°
2026-05-06 18:05 -27.14278 27.34794 22064 ft 432 kts 34°
2026-05-06 18:05 -27.12104 27.37109 21645 ft 429 kts 34°
2026-05-06 18:05 -27.09944 27.39406 21229 ft 426 kts 34°
2026-05-06 18:05 -27.07801 27.41683 20798 ft 423 kts 34°
2026-05-06 18:06 -27.05696 27.43917 20389 ft 420 kts 35°
2026-05-06 18:06 -27.03548 27.46198 19960 ft 418 kts 35°
2026-05-06 18:06 -27.01461 27.48413 19555 ft 415 kts 35°
2026-05-06 18:06 -26.99365 27.50637 19148 ft 411 kts 35°
2026-05-06 18:07 -26.97291 27.52836 18745 ft 408 kts 35°
2026-05-06 18:07 -26.95234 27.55016 18345 ft 405 kts 35°
2026-05-06 18:07 -26.93189 27.57183 17953 ft 403 kts 35°
2026-05-06 18:07 -26.91165 27.59326 17552 ft 400 kts 35°
2026-05-06 18:08 -26.89147 27.61459 17165 ft 397 kts 36°
2026-05-06 18:08 -26.87134 27.63577 16754 ft 395 kts 37°
2026-05-06 18:08 -26.85125 27.65684 16277 ft 396 kts 38°
2026-05-06 18:08 -26.83121 27.67801 15792 ft 397 kts 38°
2026-05-06 18:09 -26.81113 27.69929 15358 ft 396 kts 38°
2026-05-06 18:09 -26.79116 27.72042 14948 ft 394 kts 38°
2026-05-06 18:09 -26.77127 27.74144 14544 ft 392 kts 38°
2026-05-06 18:09 -26.75151 27.76233 14151 ft 389 kts 38°
2026-05-06 18:10 -26.73187 27.78306 13758 ft 386 kts 38°
2026-05-06 18:10 -26.71243 27.80356 13533 ft 377 kts 38°
2026-05-06 18:10 -26.69370 27.82334 13435 ft 364 kts 38°
2026-05-06 18:10 -26.67564 27.84239 13344 ft 351 kts 38°
2026-05-06 18:11 -26.65812 27.86085 13250 ft 339 kts 38°
2026-05-06 18:11 -26.64129 27.87877 13140 ft 329 kts 38°
2026-05-06 18:11 -26.62509 27.89613 13033 ft 326 kts 38°
2026-05-06 18:11 -26.60871 27.91367 12893 ft 326 kts 38°
2026-05-06 18:12 -26.59237 27.93119 12562 ft 324 kts 38°
2026-05-06 18:12 -26.57613 27.94861 12228 ft 321 kts 38°
2026-05-06 18:12 -26.56002 27.96587 11912 ft 319 kts 38°
2026-05-06 18:12 -26.54402 27.98290 11578 ft 318 kts 38°
2026-05-06 18:13 -26.52801 27.99987 11247 ft 315 kts 38°
2026-05-06 18:13 -26.51214 28.01665 10918 ft 314 kts 38°
2026-05-06 18:13 -26.49634 28.03339 10597 ft 312 kts 38°
2026-05-06 18:13 -26.48055 28.04996 10266 ft 309 kts 38°
2026-05-06 18:14 -26.46493 28.06632 9939 ft 307 kts 38°
2026-05-06 18:14 -26.44933 28.08257 9606 ft 305 kts 38°
2026-05-06 18:14 -26.43378 28.09866 9285 ft 304 kts 38°
2026-05-06 18:14 -26.41827 28.11462 8957 ft 302 kts 38°
2026-05-06 18:15 -26.40304 28.13012 8792 ft 300 kts 38°
2026-05-06 18:15 -26.38757 28.14571 8614 ft 299 kts 38°
2026-05-06 18:15 -26.37147 28.16015 8432 ft 292 kts 30°
2026-05-06 18:15 -26.35366 28.17000 8253 ft 279 kts 16°
2026-05-06 18:16 -26.33522 28.17627 8077 ft 269 kts 11°
2026-05-06 18:16 -26.31778 28.18129 8027 ft 255 kts 10°
2026-05-06 18:16 -26.30116 28.18613 8028 ft 238 kts 11°
2026-05-06 18:16 -26.28579 28.19083 8055 ft 220 kts 12°
2026-05-06 18:17 -26.27158 28.19527 8024 ft 204 kts 11°
2026-05-06 18:17 -26.25848 28.19939 7847 ft 189 kts 11°
2026-05-06 18:17 -26.24621 28.20322 7590 ft 177 kts 12°
2026-05-06 18:17 -26.23451 28.20686 7351 ft 174 kts 12°
2026-05-06 18:18 -26.22287 28.21048 7127 ft 173 kts 12°
2026-05-06 18:18 -26.21129 28.21410 6931 ft 173 kts 13°
2026-05-06 18:18 -26.19973 28.21771 6694 ft 172 kts 13°
2026-05-06 18:18 -26.18821 28.22130 6445 ft 171 kts 13°
2026-05-06 18:19 -26.17679 28.22488 6204 ft 170 kts 14°
2026-05-06 18:19 -26.16545 28.22851 5978 ft 169 kts 14°
2026-05-06 18:19 -26.15407 28.23197 5756 ft 169 kts 15°
2026-05-06 18:19 -26.14272 28.23549 5584 ft 167 kts 16°
2026-05-06 18:20 -26.13244 28.23868 5584 ft 148 kts 15°
2026-05-06 18:20 -26.12197 28.24198 6073 ft 163 kts 15°
2026-05-06 18:20 -26.11069 28.24554 6755 ft 174 kts 14°
2026-05-06 18:20 -26.09871 28.24937 7496 ft 187 kts 13°
2026-05-06 18:21 -26.08557 28.25341 7935 ft 203 kts 12°
2026-05-06 18:21 -26.07111 28.25780 8039 ft 230 kts 11°
2026-05-06 18:21 -26.05484 28.26210 8040 ft 243 kts
2026-05-06 18:21 -26.03863 28.25888 8012 ft 236 kts 330°
2026-05-06 18:22 -26.02689 28.24678 8020 ft 230 kts 298°
2026-05-06 18:22 -26.02163 28.23011 8051 ft 229 kts 283°
2026-05-06 18:22 -26.01827 28.21273 8045 ft 229 kts 281°
2026-05-06 18:22 -26.01523 28.19534 8041 ft 229 kts 280°
2026-05-06 18:23 -26.01224 28.17789 8041 ft 229 kts 279°
2026-05-06 18:23 -26.01117 28.16026 8036 ft 228 kts 267°
2026-05-06 18:23 -26.01578 28.14359 8006 ft 230 kts 238°
2026-05-06 18:23 -26.02809 28.13224 8029 ft 236 kts 208°
2026-05-06 18:24 -26.04353 28.12601 8056 ft 241 kts 201°
2026-05-06 18:24 -26.05966 28.12091 8018 ft 241 kts 200°
2026-05-06 18:24 -26.07584 28.11607 8006 ft 241 kts 199°
2026-05-06 18:24 -26.09200 28.11115 8019 ft 240 kts 200°
2026-05-06 18:25 -26.10816 28.10621 8034 ft 241 kts 199°
2026-05-06 18:25 -26.12433 28.10127 8042 ft 241 kts 199°
2026-05-06 18:25 -26.14041 28.09628 8030 ft 240 kts 199°
2026-05-06 18:25 -26.15647 28.09116 8033 ft 240 kts 199°
2026-05-06 18:26 -26.17253 28.08601 8028 ft 240 kts 199°
2026-05-06 18:26 -26.18858 28.08083 8030 ft 240 kts 199°
2026-05-06 18:26 -26.20459 28.07565 8026 ft 239 kts 199°
2026-05-06 18:26 -26.22061 28.07048 8025 ft 240 kts 199°
2026-05-06 18:27 -26.23678 28.06601 8020 ft 242 kts 186°
2026-05-06 18:27 -26.25341 28.06939 8010 ft 250 kts 155°
2026-05-06 18:27 -26.26705 28.08168 8040 ft 255 kts 134°
2026-05-06 18:27 -26.27830 28.09676 8034 ft 247 kts 130°
2026-05-06 18:28 -26.28861 28.11172 8075 ft 240 kts 129°
2026-05-06 18:28 -26.29872 28.12660 8048 ft 240 kts 129°
2026-05-06 18:28 -26.30869 28.14151 8030 ft 240 kts 125°
2026-05-06 18:28 -26.31404 28.15887 7999 ft 233 kts 92°
2026-05-06 18:29 -26.31025 28.17562 7999 ft 221 kts 54°
2026-05-06 18:29 -26.29902 28.18655 8024 ft 213 kts 22°
2026-05-06 18:29 -26.28526 28.19209 8031 ft 208 kts 11°
2026-05-06 18:29 -26.27179 28.19585 7996 ft 190 kts
2026-05-06 18:30 -26.25934 28.19925 7884 ft 185 kts
2026-05-06 18:30 -26.24717 28.20282 7613 ft 175 kts 11°
2026-05-06 18:30 -26.23553 28.20641 7379 ft 173 kts 12°
2026-05-06 18:30 -26.22394 28.21005 7150 ft 173 kts 12°
2026-05-06 18:31 -26.21240 28.21370 6941 ft 172 kts 13°
2026-05-06 18:31 -26.20093 28.21732 6718 ft 171 kts 13°
2026-05-06 18:31 -26.18944 28.22086 6450 ft 171 kts 13°
2026-05-06 18:31 -26.17807 28.22442 6198 ft 169 kts 14°
2026-05-06 18:32 -26.16680 28.22803 5964 ft 168 kts 13°
2026-05-06 18:32 -26.15552 28.23153 5736 ft 169 kts 15°
2026-05-06 18:32 -26.14424 28.23502 5610 ft 163 kts 14°
2026-05-06 18:32 -26.13444 28.23807 5560 ft 122 kts 15°
2026-05-06 18:33 -26.12802 28.24006 5553 ft 70 kts 15°
2026-05-06 18:33 -26.12426 28.24122 5547 ft 52 kts 15°
2026-05-06 18:33 -26.12090 28.24226 5543 ft 41 kts 15°
2026-05-06 18:33 -26.11892 28.24262 5544 ft 19 kts 335°
2026-05-06 18:34 -26.11841 28.24149 5536 ft 16 kts 266°
2026-05-06 18:34 -26.11920 28.24074 5538 ft 16 kts 196°
2026-05-06 18:34 -26.12023 28.24042 5546 ft 15 kts 196°
2026-05-06 18:34 -26.12129 28.24008 5548 ft 16 kts 196°
2026-05-06 18:35 -26.12244 28.23973 5550 ft 17 kts 195°
2026-05-06 18:35 -26.12362 28.23937 5550 ft 18 kts 196°
2026-05-06 18:35 -26.12483 28.23899 5551 ft 19 kts 196°
2026-05-06 18:35 -26.12608 28.23861 5555 ft 18 kts 195°
2026-05-06 18:36 -26.12733 28.23822 5559 ft 19 kts 195°